TAM3255 SBIL-SBGR

Flight info

Callsign TAM3255
Flight time 1h 44m
Altitude 36000
Route DENDE DCT POSMU DCT REDAD UZ21 VUNOX
Aircraft A320/M-SDE3FGHIRWY/LB1

Departure

Time 2026-04-24 23:37
Airport Bahia - Jorge Amado Airport (SBIL)

Arrival

Time 2026-04-25 01:22
Airport São Paulo/Guarulhos–Governor André Franco Montoro International Airport (SBGR)
Time Latitude Longitude Altitude Speed Heading
2026-04-24 23:10 -14.81444 -39.03162 20 ft 0 kts 314°
2026-04-24 23:29 -14.81457 -39.03156 23 ft 2 kts 12°
2026-04-24 23:29 -14.81471 -39.03164 20 ft 2 kts 48°
2026-04-24 23:29 -14.81481 -39.03178 21 ft 2 kts 71°
2026-04-24 23:30 -14.81483 -39.03185 20 ft 0 kts 84°
2026-04-24 23:32 -14.81482 -39.03171 20 ft 3 kts 86°
2026-04-24 23:32 -14.81482 -39.03138 20 ft 4 kts 89°
2026-04-24 23:32 -14.81481 -39.03114 19 ft 3 kts 89°
2026-04-24 23:33 -14.81489 -39.03089 19 ft 4 kts 134°
2026-04-24 23:33 -14.81510 -39.03085 18 ft 5 kts 168°
2026-04-24 23:33 -14.81558 -39.03081 18 ft 5 kts 176°
2026-04-24 23:33 -14.81580 -39.03065 18 ft 3 kts 123°
2026-04-24 23:34 -14.81584 -39.03006 18 ft 10 kts 89°
2026-04-24 23:34 -14.81582 -39.02938 18 ft 9 kts 88°
2026-04-24 23:34 -14.81580 -39.02878 18 ft 9 kts 88°
2026-04-24 23:34 -14.81579 -39.02813 18 ft 8 kts 88°
2026-04-24 23:35 -14.81577 -39.02760 19 ft 8 kts 88°
2026-04-24 23:35 -14.81576 -39.02692 19 ft 8 kts 94°
2026-04-24 23:35 -14.81598 -39.02646 20 ft 6 kts 120°
2026-04-24 23:35 -14.81600 -39.02613 20 ft 4 kts 77°
2026-04-24 23:36 -14.81594 -39.02593 22 ft 2 kts 63°
2026-04-24 23:36 -14.81571 -39.02605 20 ft 4 kts 278°
2026-04-24 23:36 -14.81572 -39.02634 21 ft 4 kts 268°
2026-04-24 23:36 -14.81573 -39.02662 21 ft 6 kts 268°
2026-04-24 23:37 -14.81577 -39.02916 22 ft 77 kts 268°
2026-04-24 23:37 -14.81599 -39.03720 60 ft 139 kts 271°
2026-04-24 23:37 -14.81702 -39.05651 1269 ft 153 kts 265°
2026-04-24 23:38 -14.81735 -39.06847 1514 ft 180 kts 265°
2026-04-24 23:38 -14.82025 -39.08153 1757 ft 197 kts 232°
2026-04-24 23:38 -14.83010 -39.09231 2026 ft 217 kts 219°
2026-04-24 23:38 -14.84214 -39.10319 2389 ft 242 kts 218°
2026-04-24 23:39 -14.85550 -39.11498 2951 ft 260 kts 218°
2026-04-24 23:39 -14.86937 -39.12739 3755 ft 267 kts 218°
2026-04-24 23:39 -14.88338 -39.14016 4611 ft 272 kts 219°
2026-04-24 23:39 -14.89764 -39.15336 5446 ft 277 kts 219°
2026-04-24 23:40 -14.91205 -39.16685 6291 ft 281 kts 220°
2026-04-24 23:40 -14.92664 -39.18057 7101 ft 285 kts 220°
2026-04-24 23:40 -14.94140 -39.19449 7903 ft 289 kts 220°
2026-04-24 23:40 -14.95632 -39.20860 8715 ft 293 kts 220°
2026-04-24 23:41 -14.97142 -39.22291 9516 ft 296 kts 220°
2026-04-24 23:41 -14.98651 -39.23719 10234 ft 302 kts 220°
2026-04-24 23:41 -15.00263 -39.25240 10489 ft 325 kts 220°
2026-04-24 23:41 -15.01981 -39.26860 10866 ft 340 kts 221°
2026-04-24 23:42 -15.03745 -39.28525 11506 ft 346 kts 221°
2026-04-24 23:42 -15.05527 -39.30211 12201 ft 349 kts 221°
2026-04-24 23:42 -15.07334 -39.31921 12876 ft 353 kts 221°
2026-04-24 23:42 -15.09155 -39.33646 13536 ft 357 kts 221°
2026-04-24 23:43 -15.10989 -39.35384 14136 ft 361 kts 221°
2026-04-24 23:43 -15.12853 -39.37150 14702 ft 364 kts 221°
2026-04-24 23:43 -15.14730 -39.38929 15257 ft 367 kts 221°
2026-04-24 23:43 -15.16623 -39.40722 15812 ft 371 kts 221°
2026-04-24 23:44 -15.18538 -39.42538 16358 ft 375 kts 221°
2026-04-24 23:44 -15.20471 -39.44369 16922 ft 378 kts 221°
2026-04-24 23:44 -15.22421 -39.46216 17490 ft 381 kts 221°
2026-04-24 23:44 -15.24386 -39.48076 18037 ft 385 kts 221°
2026-04-24 23:45 -15.26374 -39.49957 18559 ft 388 kts 221°
2026-04-24 23:45 -15.28370 -39.51848 19035 ft 391 kts 221°
2026-04-24 23:45 -15.30421 -39.53714 19505 ft 393 kts 219°
2026-04-24 23:45 -15.32547 -39.55506 19990 ft 395 kts 217°
2026-04-24 23:46 -15.34723 -39.57266 20459 ft 397 kts 216°
2026-04-24 23:46 -15.36917 -39.59016 20917 ft 400 kts 216°
2026-04-24 23:46 -15.39126 -39.60782 21367 ft 402 kts 216°
2026-04-24 23:46 -15.41333 -39.62564 21790 ft 404 kts 217°
2026-04-24 23:47 -15.43548 -39.64374 22210 ft 406 kts 217°
2026-04-24 23:47 -15.45018 -39.65587 22488 ft 408 kts 217°
2026-04-24 23:47 -15.47238 -39.67429 22902 ft 411 kts 217°
2026-04-24 23:47 -15.49475 -39.69282 23299 ft 413 kts 217°
2026-04-24 23:48 -15.51727 -39.71145 23693 ft 415 kts 217°
2026-04-24 23:48 -15.53993 -39.73020 24018 ft 417 kts 217°
2026-04-24 23:48 -15.56266 -39.74901 24355 ft 419 kts 217°
2026-04-24 23:48 -15.58550 -39.76793 24695 ft 421 kts 217°
2026-04-24 23:49 -15.60842 -39.78691 25039 ft 422 kts 217°
2026-04-24 23:49 -15.63144 -39.80591 25381 ft 424 kts 217°
2026-04-24 23:49 -15.65458 -39.82501 25727 ft 425 kts 217°
2026-04-24 23:49 -15.67778 -39.84415 26063 ft 427 kts 217°
2026-04-24 23:50 -15.70103 -39.86339 26404 ft 428 kts 217°
2026-04-24 23:50 -15.72437 -39.88274 26743 ft 430 kts 217°
2026-04-24 23:50 -15.74777 -39.90214 27075 ft 432 kts 217°
2026-04-24 23:50 -15.77127 -39.92160 27392 ft 433 kts 217°
2026-04-24 23:51 -15.79488 -39.94114 27719 ft 435 kts 217°
2026-04-24 23:51 -15.81857 -39.96073 28042 ft 436 kts 217°
2026-04-24 23:51 -15.84232 -39.98042 28362 ft 438 kts 218°
2026-04-24 23:51 -15.86615 -40.00019 28681 ft 440 kts 218°
2026-04-24 23:52 -15.89009 -40.02005 28998 ft 441 kts 218°
2026-04-24 23:52 -15.91412 -40.04002 29311 ft 443 kts 218°
2026-04-24 23:52 -15.93826 -40.06007 29635 ft 444 kts 218°
2026-04-24 23:52 -15.96245 -40.08018 29938 ft 446 kts 218°
2026-04-24 23:53 -15.98669 -40.10037 30224 ft 448 kts 218°
2026-04-24 23:53 -16.01102 -40.12061 30468 ft 449 kts 218°
2026-04-24 23:53 -16.03549 -40.14094 30704 ft 451 kts 218°
2026-04-24 23:53 -16.06004 -40.16137 30949 ft 452 kts 218°
2026-04-24 23:54 -16.08463 -40.18183 31071 ft 453 kts 218°
2026-04-24 23:54 -16.10926 -40.20229 31100 ft 453 kts 218°
2026-04-24 23:54 -16.15844 -40.24313 31098 ft 452 kts 218°
2026-04-24 23:55 -16.20757 -40.28404 31104 ft 452 kts 218°
2026-04-24 23:55 -16.25662 -40.32501 31101 ft 452 kts 218°
2026-04-24 23:56 -16.30534 -40.36565 31106 ft 451 kts 218°
2026-04-24 23:56 -16.35439 -40.40648 31112 ft 451 kts 218°
2026-04-24 23:57 -16.40333 -40.44730 31112 ft 451 kts 218°
2026-04-24 23:57 -16.45222 -40.48829 31111 ft 451 kts 218°
2026-04-24 23:58 -16.50112 -40.52927 31112 ft 451 kts 218°
2026-04-24 23:58 -16.55008 -40.57021 31119 ft 451 kts 218°
2026-04-24 23:59 -16.59899 -40.61109 31119 ft 450 kts 218°
2026-04-24 23:59 -16.64782 -40.65200 31112 ft 450 kts 218°
2026-04-25 00:00 -16.69658 -40.69287 31112 ft 450 kts 218°
2026-04-25 00:00 -16.74535 -40.73375 31106 ft 450 kts 218°
2026-04-25 00:01 -16.79407 -40.77471 31109 ft 449 kts 218°
2026-04-25 00:01 -16.84277 -40.81570 31116 ft 449 kts 218°
2026-04-25 00:02 -16.89144 -40.85660 31109 ft 449 kts 218°
2026-04-25 00:02 -16.94018 -40.89753 31107 ft 449 kts 218°
2026-04-25 00:03 -16.98885 -40.93846 31111 ft 449 kts 218°
2026-04-25 00:03 -17.03751 -40.97948 31112 ft 449 kts 218°
2026-04-25 00:04 -17.08586 -41.02029 31111 ft 449 kts 218°
2026-04-25 00:04 -17.13449 -41.06130 31112 ft 449 kts 218°
2026-04-25 00:05 -17.18306 -41.10237 31111 ft 449 kts 218°
2026-04-25 00:05 -17.23169 -41.14341 31114 ft 449 kts 218°
2026-04-25 00:06 -17.28029 -41.18449 31106 ft 449 kts 218°
2026-04-25 00:06 -17.32884 -41.22556 31116 ft 449 kts 218°
2026-04-25 00:07 -17.37742 -41.26671 31111 ft 449 kts 218°
2026-04-25 00:07 -17.42601 -41.30796 31107 ft 449 kts 218°
2026-04-25 00:08 -17.47434 -41.34890 31108 ft 449 kts 218°
2026-04-25 00:08 -17.52286 -41.39007 31111 ft 449 kts 218°
2026-04-25 00:09 -17.57136 -41.43128 31107 ft 448 kts 218°
2026-04-25 00:09 -17.61983 -41.47250 31111 ft 448 kts 218°
2026-04-25 00:10 -17.66840 -41.51365 31114 ft 448 kts 218°
2026-04-25 00:10 -17.71687 -41.55484 31108 ft 448 kts 218°
2026-04-25 00:11 -17.76528 -41.59608 31110 ft 448 kts 219°
2026-04-25 00:11 -17.81337 -41.63708 31114 ft 448 kts 219°
2026-04-25 00:12 -17.86173 -41.67842 31103 ft 448 kts 219°
2026-04-25 00:12 -17.91008 -41.71970 31106 ft 448 kts 219°
2026-04-25 00:13 -17.95845 -41.76100 31101 ft 448 kts 219°
2026-04-25 00:13 -18.00676 -41.80221 31097 ft 447 kts 219°
2026-04-25 00:14 -18.05503 -41.84344 31096 ft 447 kts 219°
2026-04-25 00:14 -18.10324 -41.88471 31090 ft 447 kts 219°
2026-04-25 00:15 -18.15147 -41.92606 31093 ft 447 kts 219°
2026-04-25 00:15 -18.19967 -41.96744 31089 ft 447 kts 219°
2026-04-25 00:16 -18.24786 -42.00880 31086 ft 447 kts 219°
2026-04-25 00:16 -18.29569 -42.04980 31084 ft 446 kts 219°
2026-04-25 00:17 -18.34417 -42.09139 31083 ft 446 kts 219°
2026-04-25 00:17 -18.39192 -42.13245 31090 ft 446 kts 219°
2026-04-25 00:18 -18.44000 -42.17389 31083 ft 446 kts 219°
2026-04-25 00:18 -18.48815 -42.21521 31088 ft 446 kts 219°
2026-04-25 00:19 -18.53625 -42.25652 31091 ft 446 kts 219°
2026-04-25 00:19 -18.58426 -42.29795 31095 ft 446 kts 219°
2026-04-25 00:20 -18.63223 -42.33937 31095 ft 446 kts 219°
2026-04-25 00:20 -18.68020 -42.38084 31105 ft 445 kts 219°
2026-04-25 00:21 -18.72807 -42.42233 31105 ft 445 kts 219°
2026-04-25 00:21 -18.77161 -42.46788 31107 ft 445 kts 233°
2026-04-25 00:22 -18.80793 -42.52099 31110 ft 445 kts 234°
2026-04-25 00:22 -18.84408 -42.57402 31117 ft 445 kts 234°
2026-04-25 00:23 -18.88031 -42.62707 31109 ft 445 kts 233°
2026-04-25 00:23 -18.91651 -42.68006 31112 ft 445 kts 234°
2026-04-25 00:24 -18.95262 -42.73311 31118 ft 444 kts 234°
2026-04-25 00:24 -18.98873 -42.78612 31117 ft 444 kts 234°
2026-04-25 00:25 -19.02483 -42.83906 31125 ft 444 kts 234°
2026-04-25 00:25 -19.06081 -42.89213 31118 ft 444 kts 234°
2026-04-25 00:26 -19.09676 -42.94511 31125 ft 443 kts 234°
2026-04-25 00:26 -19.13282 -42.99802 31125 ft 443 kts 234°
2026-04-25 00:27 -19.16873 -43.05098 31115 ft 443 kts 234°
2026-04-25 00:27 -19.20434 -43.10366 31124 ft 443 kts 234°
2026-04-25 00:28 -19.24016 -43.15666 31124 ft 443 kts 234°
2026-04-25 00:28 -19.27607 -43.20960 31122 ft 443 kts 234°
2026-04-25 00:29 -19.31196 -43.26253 31123 ft 442 kts 234°
2026-04-25 00:29 -19.34773 -43.31556 31127 ft 442 kts 234°
2026-04-25 00:30 -19.38354 -43.36864 31123 ft 442 kts 234°
2026-04-25 00:30 -19.41930 -43.42173 31133 ft 442 kts 234°
2026-04-25 00:31 -19.45502 -43.47481 31129 ft 442 kts 234°
2026-04-25 00:31 -19.49077 -43.52785 31133 ft 442 kts 234°
2026-04-25 00:32 -19.52642 -43.58093 31133 ft 442 kts 234°
2026-04-25 00:32 -19.55602 -43.62507 31147 ft 442 kts 234°
2026-04-25 00:33 -19.57965 -43.66032 31445 ft 444 kts 234°
2026-04-25 00:33 -19.59762 -43.68709 31726 ft 445 kts 234°
2026-04-25 00:33 -19.61558 -43.71383 32101 ft 444 kts 234°
2026-04-25 00:33 -19.63346 -43.74046 32462 ft 443 kts 234°
2026-04-25 00:34 -19.65129 -43.76703 32816 ft 442 kts 234°
2026-04-25 00:34 -19.66911 -43.79360 33174 ft 441 kts 234°
2026-04-25 00:34 -19.68086 -43.81114 33411 ft 441 kts 234°
2026-04-25 00:34 -19.69862 -43.83765 33769 ft 440 kts 234°
2026-04-25 00:35 -19.71634 -43.86409 34124 ft 439 kts 234°
2026-04-25 00:35 -19.73401 -43.89051 34442 ft 438 kts 234°
2026-04-25 00:35 -19.75162 -43.91688 34745 ft 437 kts 234°
2026-04-25 00:35 -19.76918 -43.94316 35053 ft 436 kts 234°
2026-04-25 00:36 -19.78673 -43.96941 35343 ft 436 kts 234°
2026-04-25 00:36 -19.80423 -43.99564 35629 ft 435 kts 234°
2026-04-25 00:36 -19.82172 -44.02186 35904 ft 434 kts 234°
2026-04-25 00:36 -19.83917 -44.04804 36124 ft 434 kts 235°
2026-04-25 00:37 -19.87385 -44.10012 36181 ft 429 kts 234°
2026-04-25 00:37 -19.90821 -44.15165 36169 ft 427 kts 234°
2026-04-25 00:38 -19.94255 -44.20322 36154 ft 427 kts 235°
2026-04-25 00:38 -19.97677 -44.25483 36139 ft 427 kts 235°
2026-04-25 00:39 -20.01083 -44.30612 36129 ft 427 kts 235°
2026-04-25 00:39 -20.04532 -44.35802 36130 ft 427 kts 235°
2026-04-25 00:40 -20.07956 -44.40969 36134 ft 427 kts 235°
2026-04-25 00:40 -20.11383 -44.46138 36134 ft 427 kts 235°
2026-04-25 00:41 -20.15295 -44.50823 36131 ft 428 kts 219°
2026-04-25 00:41 -20.20096 -44.54576 36133 ft 428 kts 217°
2026-04-25 00:42 -20.24918 -44.58311 36134 ft 428 kts 217°
2026-04-25 00:42 -20.29730 -44.62061 36134 ft 428 kts 217°
2026-04-25 00:43 -20.34537 -44.65819 36136 ft 428 kts 217°
2026-04-25 00:43 -20.39348 -44.69574 36136 ft 429 kts 217°
2026-04-25 00:44 -20.44233 -44.73383 36125 ft 439 kts 217°
2026-04-25 00:44 -20.49140 -44.77209 36128 ft 440 kts 217°
2026-04-25 00:45 -20.54089 -44.81074 36129 ft 440 kts 217°
2026-04-25 00:45 -20.59033 -44.84949 36127 ft 440 kts 217°
2026-04-25 00:46 -20.63977 -44.88812 36128 ft 440 kts 217°
2026-04-25 00:47 -20.71393 -44.94620 36136 ft 440 kts 217°
2026-04-25 00:47 -20.76332 -44.98493 36140 ft 440 kts 217°
2026-04-25 00:48 -20.81267 -45.02371 36143 ft 440 kts 217°
2026-04-25 00:48 -20.86205 -45.06253 36140 ft 440 kts 217°
2026-04-25 00:49 -20.91113 -45.10108 36141 ft 440 kts 218°
2026-04-25 00:49 -20.96042 -45.13987 36142 ft 440 kts 218°
2026-04-25 00:50 -21.00965 -45.17869 36141 ft 439 kts 218°
2026-04-25 00:50 -21.05884 -45.21752 36137 ft 439 kts 218°
2026-04-25 00:51 -21.10800 -45.25637 36138 ft 439 kts 218°
2026-04-25 00:51 -21.15713 -45.29512 36138 ft 439 kts 218°
2026-04-25 00:52 -21.20631 -45.33394 36137 ft 439 kts 218°
2026-04-25 00:52 -21.25534 -45.37279 36136 ft 438 kts 218°
2026-04-25 00:53 -21.30426 -45.41164 36149 ft 436 kts 218°
2026-04-25 00:53 -21.35265 -45.45000 36151 ft 434 kts 218°
2026-04-25 00:54 -21.40117 -45.48849 36148 ft 433 kts 218°
2026-04-25 00:54 -21.44952 -45.52689 36147 ft 432 kts 218°
2026-04-25 00:55 -21.49771 -45.56528 36141 ft 431 kts 218°
2026-04-25 00:55 -21.54598 -45.60331 36150 ft 429 kts 218°
2026-04-25 00:56 -21.59411 -45.64095 36150 ft 426 kts 218°
2026-04-25 00:56 -21.64187 -45.67838 36152 ft 424 kts 218°
2026-04-25 00:56 -21.66565 -45.69707 35968 ft 423 kts 218°
2026-04-25 00:57 -21.68931 -45.71569 35720 ft 419 kts 218°
2026-04-25 00:57 -21.71270 -45.73405 35257 ft 415 kts 218°
2026-04-25 00:57 -21.73596 -45.75234 34761 ft 413 kts 218°
2026-04-25 00:57 -21.75906 -45.77055 34261 ft 411 kts 218°
2026-04-25 00:58 -21.78205 -45.78868 33736 ft 409 kts 218°
2026-04-25 00:58 -21.80487 -45.80667 33241 ft 405 kts 218°
2026-04-25 00:58 -21.82752 -45.82453 32756 ft 402 kts 218°
2026-04-25 00:58 -21.84998 -45.84228 32278 ft 399 kts 218°
2026-04-25 00:59 -21.87226 -45.85988 31795 ft 396 kts 218°
2026-04-25 00:59 -21.89441 -45.87737 31337 ft 394 kts 218°
2026-04-25 00:59 -21.91643 -45.89476 30875 ft 391 kts 218°
2026-04-25 00:59 -21.93848 -45.91216 30419 ft 394 kts 218°
2026-04-25 01:00 -21.96059 -45.92964 29933 ft 394 kts 218°
2026-04-25 01:00 -21.98261 -45.94707 29469 ft 392 kts 218°
2026-04-25 01:00 -22.00453 -45.96442 29042 ft 390 kts 218°
2026-04-25 01:00 -22.02645 -45.98179 28608 ft 392 kts 218°
2026-04-25 01:01 -22.04837 -45.99918 28189 ft 391 kts 218°
2026-04-25 01:01 -22.07027 -46.01655 27749 ft 389 kts 218°
2026-04-25 01:01 -22.09201 -46.03378 27314 ft 387 kts 218°
2026-04-25 01:01 -22.11370 -46.05096 26851 ft 386 kts 218°
2026-04-25 01:02 -22.13528 -46.06803 26425 ft 384 kts 218°
2026-04-25 01:02 -22.15671 -46.08499 25976 ft 382 kts 218°
2026-04-25 01:02 -22.17782 -46.10175 25484 ft 380 kts 218°
2026-04-25 01:02 -22.19911 -46.11864 25002 ft 379 kts 218°
2026-04-25 01:03 -22.22026 -46.13546 24496 ft 378 kts 218°
2026-04-25 01:03 -22.24146 -46.15233 23993 ft 378 kts 218°
2026-04-25 01:03 -22.26262 -46.16916 23435 ft 378 kts 218°
2026-04-25 01:03 -22.28373 -46.18597 22924 ft 376 kts 218°
2026-04-25 01:04 -22.30509 -46.20209 22428 ft 375 kts 212°
2026-04-25 01:04 -22.32897 -46.21346 21942 ft 376 kts 199°
2026-04-25 01:04 -22.35460 -46.21889 21502 ft 376 kts 190°
2026-04-25 01:04 -22.38042 -46.22281 21050 ft 374 kts 190°
2026-04-25 01:05 -22.40612 -46.22678 20594 ft 372 kts 190°
2026-04-25 01:05 -22.43162 -46.23076 20256 ft 367 kts 191°
2026-04-25 01:05 -22.45685 -46.23471 19735 ft 369 kts 191°
2026-04-25 01:05 -22.48227 -46.23872 19278 ft 369 kts 191°
2026-04-25 01:06 -22.50736 -46.24263 19045 ft 361 kts 190°
2026-04-25 01:06 -22.53224 -46.24648 18539 ft 362 kts 190°
2026-04-25 01:06 -22.55729 -46.25038 18049 ft 363 kts 190°
2026-04-25 01:06 -22.58197 -46.25422 17816 ft 354 kts 190°
2026-04-25 01:07 -22.60604 -46.25796 17618 ft 345 kts 190°
2026-04-25 01:07 -22.62957 -46.26159 17422 ft 338 kts 190°
2026-04-25 01:07 -22.65275 -46.26517 17230 ft 335 kts 190°
2026-04-25 01:07 -22.67577 -46.26872 17034 ft 333 kts 190°
2026-04-25 01:08 -22.69867 -46.27226 16843 ft 332 kts 190°
2026-04-25 01:08 -22.72152 -46.27582 16655 ft 331 kts 190°
2026-04-25 01:08 -22.74422 -46.27937 16452 ft 329 kts 190°
2026-04-25 01:08 -22.76683 -46.28300 16276 ft 328 kts 192°
2026-04-25 01:09 -22.78853 -46.28986 16076 ft 324 kts 205°
2026-04-25 01:09 -22.80841 -46.30117 15731 ft 321 kts 212°
2026-04-25 01:09 -22.82774 -46.31322 15408 ft 320 kts 211°
2026-04-25 01:09 -22.84698 -46.32515 15094 ft 318 kts 211°
2026-04-25 01:10 -22.86617 -46.33701 14776 ft 317 kts 211°
2026-04-25 01:10 -22.88526 -46.34881 14466 ft 315 kts 211°
2026-04-25 01:10 -22.90429 -46.36058 14154 ft 314 kts 211°
2026-04-25 01:10 -22.92300 -46.37217 13835 ft 313 kts 211°
2026-04-25 01:11 -22.94183 -46.38385 13489 ft 311 kts 211°
2026-04-25 01:11 -22.96052 -46.39542 13201 ft 308 kts 211°
2026-04-25 01:11 -22.97906 -46.40691 12901 ft 306 kts 211°
2026-04-25 01:11 -22.99748 -46.41837 12593 ft 304 kts 211°
2026-04-25 01:12 -23.01582 -46.42980 12294 ft 303 kts 211°
2026-04-25 01:12 -23.03406 -46.44116 11990 ft 302 kts 211°
2026-04-25 01:12 -23.05225 -46.45248 11690 ft 300 kts 211°
2026-04-25 01:12 -23.07032 -46.46374 11395 ft 298 kts 211°
2026-04-25 01:13 -23.08829 -46.47493 11104 ft 297 kts 211°
2026-04-25 01:13 -23.10618 -46.48607 10823 ft 296 kts 211°
2026-04-25 01:13 -23.12401 -46.49718 10527 ft 294 kts 211°
2026-04-25 01:13 -23.14170 -46.50820 10246 ft 293 kts 211°
2026-04-25 01:14 -23.15918 -46.51909 9949 ft 291 kts 211°
2026-04-25 01:14 -23.17644 -46.52985 9653 ft 289 kts 211°
2026-04-25 01:14 -23.19411 -46.54086 9362 ft 288 kts 211°
2026-04-25 01:14 -23.21148 -46.55173 9071 ft 288 kts 212°
2026-04-25 01:15 -23.22846 -46.56318 8784 ft 287 kts 214°
2026-04-25 01:15 -23.24513 -46.57502 8488 ft 286 kts 215°
2026-04-25 01:15 -23.26167 -46.58698 8195 ft 285 kts 215°
2026-04-25 01:15 -23.27801 -46.59880 7966 ft 284 kts 215°
2026-04-25 01:16 -23.29450 -46.61070 7765 ft 285 kts 214°
2026-04-25 01:16 -23.31103 -46.62255 7561 ft 284 kts 214°
2026-04-25 01:16 -23.32755 -46.63433 7350 ft 284 kts 214°
2026-04-25 01:16 -23.34411 -46.64609 7120 ft 284 kts 214°
2026-04-25 01:17 -23.36064 -46.65782 6914 ft 283 kts 214°
2026-04-25 01:17 -23.37144 -46.66549 6778 ft 278 kts 214°
2026-04-25 01:17 -23.39268 -46.68061 6463 ft 269 kts 214°
2026-04-25 01:17 -23.40873 -46.69064 6170 ft 264 kts 199°
2026-04-25 01:18 -23.42657 -46.69138 6007 ft 255 kts 163°
2026-04-25 01:18 -23.44104 -46.68174 5973 ft 239 kts 129°
2026-04-25 01:18 -23.45035 -46.66691 5982 ft 238 kts 122°
2026-04-25 01:18 -23.45957 -46.65192 5861 ft 241 kts 123°
2026-04-25 01:19 -23.46905 -46.63626 5223 ft 254 kts 116°
2026-04-25 01:19 -23.47283 -46.61768 4736 ft 251 kts 86°
2026-04-25 01:19 -23.46910 -46.59957 4435 ft 239 kts 73°
2026-04-25 01:19 -23.46345 -46.58320 4094 ft 225 kts 64°
2026-04-25 01:20 -23.45698 -46.56843 3775 ft 209 kts 69°
2026-04-25 01:20 -23.45277 -46.55380 3568 ft 190 kts 76°
2026-04-25 01:20 -23.45079 -46.54488 3515 ft 176 kts 76°
2026-04-25 01:20 -23.44758 -46.53258 3511 ft 162 kts 73°
2026-04-25 01:21 -23.44441 -46.52102 3238 ft 158 kts 73°
2026-04-25 01:21 -23.44135 -46.50981 3017 ft 154 kts 74°
2026-04-25 01:21 -23.43850 -46.49873 2772 ft 151 kts 73°
2026-04-25 01:21 -23.43546 -46.48780 2586 ft 150 kts 74°
2026-04-25 01:22 -23.43256 -46.47705 2467 ft 139 kts 73°
2026-04-25 01:22 -23.43022 -46.46827 2470 ft 97 kts 73°
2026-04-25 01:22 -23.42880 -46.46304 2468 ft 36 kts 73°
2026-04-25 01:22 -23.42810 -46.46193 2464 ft 14 kts 15°
2026-04-25 01:23 -23.42732 -46.46207 2464 ft 7 kts 343°
2026-04-25 01:23 -23.42700 -46.46218 2463 ft 3 kts 343°
2026-04-25 01:23 -23.42683 -46.46224 2465 ft 2 kts 343°
2026-04-25 01:23 -23.42672 -46.46227 2465 ft 1 kts 343°
2026-04-25 01:24 -23.42665 -46.46230 2464 ft 5 kts 342°
2026-04-25 01:24 -23.42624 -46.46249 2467 ft 7 kts 313°
2026-04-25 01:24 -23.42626 -46.46321 2464 ft 11 kts 253°
2026-04-25 01:24 -23.42649 -46.46407 2461 ft 13 kts 253°
2026-04-25 01:25 -23.42678 -46.46510 2461 ft 14 kts 254°
2026-04-25 01:25 -23.42706 -46.46612 2462 ft 13 kts 253°
2026-04-25 01:25 -23.42731 -46.46699 2464 ft 11 kts 255°
2026-04-25 01:25 -23.42747 -46.46768 2464 ft 9 kts 254°
2026-04-25 01:26 -23.42764 -46.46828 2463 ft 8 kts 253°
2026-04-25 01:26 -23.42779 -46.46883 2465 ft 7 kts 253°
2026-04-25 01:26 -23.42788 -46.46916 2469 ft 4 kts 254°
2026-04-25 01:26 -23.42806 -46.46981 2471 ft 15 kts 253°
2026-04-25 01:27 -23.42836 -46.47093 2466 ft 12 kts 254°
2026-04-25 01:27 -23.42860 -46.47182 2467 ft 12 kts 253°
2026-04-25 01:27 -23.42883 -46.47269 2467 ft 11 kts 253°
2026-04-25 01:28 -23.42920 -46.47412 2464 ft 8 kts 253°
2026-04-25 01:28 -23.42936 -46.47467 2465 ft 7 kts 253°
2026-04-25 01:28 -23.42948 -46.47512 2464 ft 5 kts 253°
2026-04-25 01:28 -23.42964 -46.47571 2464 ft 13 kts 253°
2026-04-25 01:29 -23.42995 -46.47684 2463 ft 18 kts 253°
2026-04-25 01:29 -23.43037 -46.47834 2466 ft 19 kts 257°
2026-04-25 01:29 -23.43063 -46.47938 2465 ft 16 kts 253°
2026-04-25 01:29 -23.43092 -46.48043 2468 ft 12 kts 253°
2026-04-25 01:30 -23.43086 -46.48121 2468 ft 11 kts 323°
2026-04-25 01:30 -23.43019 -46.48085 2467 ft 14 kts 71°
2026-04-25 01:30 -23.43000 -46.48014 2466 ft 9 kts 73°
2026-04-25 01:30 -23.42986 -46.47966 2467 ft 6 kts 72°
2026-04-25 01:31 -23.42972 -46.47912 2465 ft 6 kts 74°
2026-04-25 01:31 -23.42940 -46.47894 2469 ft 5 kts 332°
2026-04-25 01:31 -23.42912 -46.47925 2465 ft 5 kts 310°
2026-04-25 01:31 -23.42904 -46.47935 2465 ft 0 kts 309°